GPS BIIR-6 (PRN 14)

Last updated on Aug. 24, 2020, 5:36 a.m. UTC

1 26605U 00071A   20236.70033532  .00000034  00000-0  00000+0 0  9999
2 26605  55.0356 178.8015 0117790 251.0348 292.6247  2.00562206144940
UTC
Height (km)
Latitude
Longitude
Inclination
Orbital Period
UTC large
Height (km)
Speed (km/s)
/
Latitude / Longitude
Inclination (degrees)
Orbital Period (minutes)
Azimuth
Elevation
Range (km)
Doppler Factor
iOS Compass Heading
iOS Angle

Next 30 passes for location: Hong Kong

Rise time Rise Azimuth (degrees) Set time Set Azimuth (degrees) Duration Max altitude (degrees)

No matching passes for this satellites